#timestamp,LO_Frequency 
1478692815.5,286047000.4
1478692835.5,286047000.4
1478692855.4,286046998.6
1478692875.3,286047002.5
1478692895.2,286046996.7
1478692915.2,286047000.0
1478692935.1,286046996.5
1478692955.0,286047002.4
1478692955.9,286047002.4
1478692975.9,286046995.4
1478692995.8,286047002.6
1478693015.7,286046997.4
1478693035.6,286046999.0
1478693055.6,286047001.0
1478693075.5,286046996.8
1478693095.4,286047001.6
1478693115.3,286046998.6
1478693135.3,286047000.9
1478693155.2,286046998.3
1478693175.1,286047000.3
1478693195.0,286046996.6
1478693196.0,286046996.6
1478693215.9,286047004.2
1478693235.8,286046998.4
1478693255.7,286047000.8
1478693275.7,286046997.0
1478693295.6,286047000.0
1478693315.5,286047001.1
1478693335.4,286046998.5
1478693355.4,286046998.6
1478693375.3,286047000.8
1478693395.2,286046998.1
1478693415.1,286047000.9
1478693435.1,286046996.7
1478693436.0,286046996.7
1478693455.9,286047002.9
1478693475.8,286047002.0
1478693495.8,286047001.0
1478693515.7,286046996.9
1478693535.6,286047000.3
1478693555.5,286046998.4
1478693575.5,286047001.0
1478693595.4,286046998.9
1478693615.3,286046998.1
1478693635.2,286046998.9
1478693655.2,286046996.6
1478693675.1,286047001.1
1478693695.0,286046995.3
1478693695.9,286046995.3
1478693715.9,286047003.0
1478693735.8,286046999.0
1478693755.7,286046998.3
1478693775.6,286047000.5
1478693795.6,286047000.0
1478693815.5,286047002.6
1478693835.4,286046998.1
1478693855.3,286047000.7
1478693875.3,286046999.3
1478693895.2,286046997.3
1478693915.1,286046998.8
1478693935.0,286047000.5
1478693936.0,286047000.5
1478693955.9,286046997.1
1478693975.8,286046996.7
1478693995.7,286047002.5
1478694015.7,286046998.1
1478694035.6,286047000.5
1478694055.5,286047002.3
1478694075.4,286046997.0
1478694095.4,286047000.2
1478694115.3,286047002.7
1478694135.2,286046994.9
1478694155.1,286047000.4
1478694175.1,286046998.2
1478694176.0,286046998.2
1478694195.9,286047002.9
1478694215.8,286046998.2
1478694235.8,286046998.1
1478694255.7,286046999.3
1478694275.6,286046998.4
1478694295.5,286047000.8
1478694315.5,286046998.6
1478694335.4,286047000.9
1478694355.3,286046997.1
1478694375.2,286047001.2
1478694395.2,286046998.0
1478694415.1,286046997.0
1478694435.0,286047000.8
1478694435.9,286047000.8
1478694455.9,286046997.3
1478694475.8,286047000.5
1478694495.7,286046999.5
1478694515.6,286046996.8
1478694535.6,286046999.1
1478694555.5,286047001.2
1478694575.4,286047001.1
1478694595.3,286046998.7
1478694615.3,286047000.0
1478694635.2,286046999.4
1478694655.1,286047001.1
1478694675.0,286046996.6
1478694676.0,286046996.6
1478694695.9,286047004.1
1478694715.8,286046996.9
1478694735.7,286047001.1
1478694755.7,286046997.2
1478694775.6,286046996.6
1478694795.5,286046999.7
1478694815.4,286047000.1
1478694835.4,286047002.2
1478694855.3,286046995.3
1478694875.2,286046994.9
1478694895.1,286046998.7
1478694915.1,286046999.4
1478694916.0,286046999.4
1478694935.0,286046995.5
1478694935.9,286046995.5
1478694955.8,286047001.5
1478694975.8,286046997.5
1478694995.7,286046997.1
1478695015.6,286046998.5
1478695035.5,286046996.5
1478695055.5,286046999.5
1478695075.4,286046998.9
1478695095.3,286046994.6
1478695115.2,286046994.2
1478695135.2,286046994.0
1478695155.1,286046996.3
1478695175.0,286046995.8
1478695175.9,286046995.8
1478695195.9,286046998.4
1478695215.8,286047000.0
1478695235.7,286046994.7
1478695255.7,286046990.5
1478695275.6,286046994.4
1478695295.5,286046997.5
1478695315.4,286046992.6
1478695335.4,286046995.4
1478695355.3,286046997.6
1478695375.2,286046991.2
1478695395.1,286046991.4
1478695415.1,286046991.4
1478695416.0,286046991.4
1478695435.0,286046998.7
1478695435.9,286046998.7
1478695455.8,286046995.4
1478695475.8,286046994.9
1478695495.7,286046986.2
1478695515.6,286046988.0
1478695535.6,286046986.1
1478695555.5,286046987.0
1478695575.4,286046988.1
1478695595.3,286046986.8
1478695615.3,286046985.5
1478695635.2,286046993.1
1478695655.1,286047003.9
1478695675.0,286047008.8
1478695676.0,286047008.8
1478695695.9,286046995.0
1478695715.8,286047004.9
1478695735.7,286046994.9
1478695755.7,286046986.1
1478695775.6,286046981.8
1478695795.5,286046982.9
1478695815.4,286046988.0
1478695835.4,286046987.7
1478695855.3,286046991.2
1478695875.2,286046994.6
1478695895.1,286046991.7
1478695915.1,286046996.1
1478695916.0,286046996.1
1478695935.9,286047003.8
1478695955.8,286047002.8
1478695975.8,286047010.0
1478695995.7,286047020.1
1478696015.6,286047015.5
1478696035.5,286047007.5
1478696055.5,286047010.1
1478696075.4,286047013.6
1478696095.3,286047009.8
1478696115.2,286047008.5
1478696135.2,286046998.7
1478696155.1,286047004.9
1478696156.0,286047004.9
1478696175.0,286047003.4
1478696175.9,286047003.4
1478696195.9,286047004.9
1478696215.8,286047006.9
1478696235.7,286046994.6
1478696255.6,286046981.7
1478696275.6,286046983.5
1478696295.5,286046977.7
1478696315.4,286046984.2
1478696335.3,286046990.5
1478696355.3,286046992.4
1478696375.2,286046989.4
1478696395.1,286046993.6
